Location: Bannatyne
(13.0833°N, 59.5333°W)
Time: 07:15:14
(UTC+00:00)

Cosmos 1570 Rocket - Pass Details

Date: 18 October 2019
Orbit: 763 x 788 km, 74.1° (Epoch: 19 November)

Event Time Altitude Azimuth Distance (km) Brightness Sun altitude
Rises 22:48:10 0° 176° (S) 3,237 7.3 -17.9°
Reaches altitude 10° 22:50:40 10° 169° (S) 2,315 6.4 -18.5°
Maximum altitude 22:55:33 39° 101° (E) 1,151 4.4 -19.6°
Enters shadow 22:55:57 38° 90° (E) 1,163 4.4 -19.7°
